Location: Unspecified
(0.0000°N, 0.0000°E)
Time: 17:25:51
(UTC+00:00)

Courier 1B Rocket - Pass Details

Date: 19 April 2021
Orbit: 920 x 1202 km, 28.3° (Epoch: 14 May)

Event Time Altitude Azimuth Distance (km) Brightness Sun altitude
Exits shadow 02:49:55 29° 79° (E) 2,034 6.9 -46.1°
Drops below altitude 10° 02:53:44 10° 98° (E) 3,081 8.1 -45.2°
Sets 02:56:40 0° 105° (ESE) 4,016 8.8 -44.5°
